Regional Weather Roundup
Issued by NWS Raleigh/Durham, NC

Home | Current Version | Previous Version | Text Only | Print | Product List | Glossary On
Versions: 1 2 3 4 5 6 7 8 9 10 11 12 13 14 15 16 17 18 19 20 21 22 23 24 25 26 27 28 29 30 31 32 33 34 35 36 37 38 39 40 41 42 43 44 45 46 47 48 49 50
000
ASUS42 KRAH 281110
RWRRAH
NORTH CAROLINA WEATHER ROUNDUP
NATIONAL WEATHER SERVICE RALEIGH NC
700 AM EDT SAT MAY 28 2016

NOTE: "FAIR" INDICATES FEW OR NO CLOUDS BELOW 12,000 FEET WITH NO
SIGNIFICANT WEATHER AND/OR OBSTRUCTIONS TO VISIBILITY.

NCZ001-053-055-056-065-067-281200-
WESTERN NORTH CAROLINA

CITY           SKY/WX    TMP DP  RH WIND       PRES   REMARKS
ASHEVILLE      PTCLDY    57  55  93 SW3       30.21R FOG
JEFFERSON      CLEAR     58  57  97 NE3       30.24S FOG
MORGANTON      CLEAR     57  57 100 CALM      30.22S FOG
HICKORY        CLEAR     61  60  97 N3        30.17R
RUTHERFORDTON  CLEAR     62  61  96 CALM      30.17S
MOUNT AIRY     MOCLDY    64  61  90 CALM      30.21R
BOONE          CLEAR     55  55 100 CALM      30.25S FOG
$$

NCZ021-022-025-041-071-084-088-281200-
CENTRAL NORTH CAROLINA

CITY           SKY/WX    TMP DP  RH WIND       PRES   REMARKS
CHARLOTTE      PTCLDY    62  57  83 CALM      30.17R
GREENSBORO     PTCLDY    65  60  84 CALM      30.18R
WINSTON-SALEM  CLEAR     63  59  87 CALM      30.19R
RALEIGH-DURHAM MOSUNNY   61  59  93 CALM      30.18R
FORT BRAGG     PTCLDY    60  58  93 N5        30.15R
FAYETTEVILLE   PTCLDY    61  58  90 N5        30.15R
BURLINGTON     CLEAR     61  58  90 CALM      30.17R
LAURINBURG     CLEAR     60  57  89 NE3       30.16R
$$

NCZ011-015-027-028-043-044-047-080-103-281200-
NORTHEASTERN NORTH CAROLINA

CITY           SKY/WX    TMP DP  RH WIND       PRES   REMARKS
ROCKY MT-WILSO SUNNY     59  59 100 CALM      30.18R
GREENVILLE     SUNNY     59  59 100 CALM      30.18R FOG
WASHINGTON     SUNNY     60  59  95 CALM      30.17R
ELIZABETH CITY SUNNY     65  64  97 CALM      30.18R
MANTEO         NOT AVBL
CAPE HATTERAS  SUNNY     74  69  85 SE7       30.16R
$$

NCZ078-087-090-091-093-098-101-281200-
SOUTHEASTERN NORTH CAROLINA

CITY           SKY/WX    TMP DP  RH WIND       PRES   REMARKS
LUMBERTON      CLEAR     64  61  90 CALM      30.15R
GOLDSBORO      MOSUNNY   61  61 100 CALM      30.15R
KENANSVILLE    SUNNY     59  58  97 CALM      30.17R
NEW BERN       SUNNY     66  63  90 CALM      30.17R
CHERRY POINT   MOSUNNY   68  66  93 CALM      30.16R
BEAUFORT       SUNNY     70  68  93 NE5       30.15R
JACKSONVILLE   SUNNY     67  64  90 CALM      30.14R
WILMINGTON     MOSUNNY   66  65  96 NE6       30.13R
$$




USA.gov is the U.S. government's official web portal to all federal, state and local government web resources and services.